Location: Unspecified
(0.0000°N, 0.0000°E)
Time: 19:43:19
(UTC+00:00)

Transit 4A - Pass Details

Date: 27 April 2024
Orbit: 871 x 971 km, 66.8° (Epoch: 22 May)

Event Time Altitude Azimuth Distance (km) Brightness Sun altitude
Rises 21:46:47 0° 331° (NNW) 3,485 - -54.7°
Reaches altitude 10° 21:49:17 10° 327° (NNW) 2,560 - -55.2°
Maximum altitude 21:55:04 54° 251° (WSW) 1,094 - -56.5°
Drops below altitude 10° 22:01:02 10° 174° (S) 2,638 - -57.9°
Sets 22:03:40 0° 169° (S) 3,599 - -58.4°
